Flag for Brazil Weather past 2 weeks in Cuiabá, Mato Grosso, Brazil

Now
77 °F

Clear.


Feels Like: 78 °F
Forecast: 74 / 90 °F
Wind: 2 mph from South

Location: Cuiaba Aeroporto

Current Time: Apr 24, 2015 at 10:46:01 PM

Latest Report: Apr 24, 2015 at 10:00 PM


Visibility: 10 mi

Pressure: 30.04 "Hg

Humidity: 83%

Dew point: 72 °F

Location of CuiabáLocation

Historic Weather in Cuiabá — Graph

°F

Cuiabá temperature yesterday

Maximum temperature yesterday: 88 °F (at 2:00 PM)
Minimum temperature yesterday: 73 °F (at 5:00 AM)
Average temperature yesterday: 78 °F

Past Weeks' High & Low Weather Summary

 TemperatureHumidityPressure
High93 °F (Apr 16, 1:00 PM)100% (Apr 10, 6:00 AM)30.04 "Hg (Apr 10, 6:00 AM)
Low70 °F (Apr 11, 3:00 AM)46% (Apr 12, 2:00 PM)29.80 "Hg (Apr 15, 4:00 PM)
Average80 °F81%29.92 "Hg
* Reported Apr 9 9:00 PM — Apr 24 9:00 PM, Cuiabá, Weather by CustomWeather, © 2015

Note: Actual official high and low records may vary slightly from our data, if they occured in-between our weather recording intervals... More about our weather records

Advertising

Cuiabá weather history for previous 24 hours

 ConditionsComfort  
Time TempWeatherWind HumidityBarometerVisibility
9:00 PM
Fri, Apr 24
77 °FPassing clouds.1 mph89%30.01 "HgN/A
8:00 PM77 °FPassing clouds.5 mph89%30.01 "HgN/A
7:00 PM77 °FPassing clouds.5 mph89%29.98 "HgN/A
6:00 PM79 °FPassing clouds.3 mph79%29.95 "HgN/A
5:00 PM82 °FScattered clouds.2 mph70%29.92 "HgN/A
4:00 PM82 °FLight rain. Scattered clouds.8 mph70%29.89 "Hg4 mi
3:00 PM90 °FScattered clouds.8 mph59%29.89 "HgN/A
2:00 PM88 °FScattered clouds.2 mph62%29.92 "HgN/A
1:00 PM86 °FScattered clouds.5 mph70%29.95 "HgN/A
12:00 PM84 °FScattered clouds.5 mph74%30.01 "HgN/A
11:00 AM84 °FBroken clouds.2 mph70%30.04 "HgN/A
10:00 AM81 °FBroken clouds.3 mph79%30.04 "HgN/A
9:00 AM79 °FPartly sunny.5 mph84%30.04 "HgN/A
8:00 AM77 °FPartly sunny.5 mph89%30.04 "HgN/A
7:00 AM77 °FLow clouds.3 mph89%30.01 "HgN/A
6:00 AM75 °FScattered clouds.3 mph94%29.95 "HgN/A
5:00 AM75 °FPassing clouds.3 mph94%29.92 "HgN/A
4:00 AM75 °FPassing clouds.3 mph94%29.95 "HgN/A
3:00 AM77 °FPassing clouds.2 mph89%29.92 "HgN/A
2:00 AM77 °FPassing clouds.6 mph89%29.95 "HgN/A
1:00 AM77 °FPassing clouds.1 mph89%29.95 "HgN/A
12:00 AM77 °FPassing clouds.3 mph94%29.95 "HgN/A
11:00 PM
Thu, Apr 23
77 °FPassing clouds.5 mph94%29.98 "HgN/A
10:00 PM77 °FPassing clouds.5 mph94%29.98 "HgN/A
Weather by CustomWeather, © 2015

See weather overviewHow to use our weather pages